Weather in Bolshaya Koreniha

Ukraine / Mykolaiv District     46°56′42″N   31°54′04″E
temp.,
°C
wind,
m/s
gust,
m/s
humid.,
%
clouds,
%
prec.,
mm/h
press.,
hPa
HPBL,
m
8 may, sat
sat800:00+14s61375100 0.4 1011473
03:00+13s71685100 0.6 1009495
06:00+13ssw61289100 0.6 1008470
09:00+15wsw5989100 1.1 1010596
12:00+14nw7974100 0.4 10121061
15:00+15nnw7956100 0.4 10141599
18:00+14nnw81048100 0.0 10151412
21:00+10nnw7125484 0.0 1018831
9 may, sun
sun900:00+8nnw7136485 0.0 1019745
03:00+6nnw613760 0.0 1021515
06:00+5nnw411830 0.0 1023355
09:00+9nnw79543 0.0 1025963
12:00+14n68385 0.0 10252052
15:00+16n6731100 0.0 10252916
18:00+15n563353 0.0 10262364
21:00+11ne355113 0.0 1028107
10 may, mon
mon1000:00+9ne22585 0.0 102936
03:00+8ne11615 0.0 102911
06:00+7ne22665 0.0 103032
09:00+13ne33495 0.0 1030543
12:00+17n45385 0.0 10292137
15:00+18n45335 0.0 10272378
18:00+18nne563617 0.0 10262192
21:00+12ne410523 0.0 1026268
11 may, tue
tue1100:00+10nne48570 0.0 1026162
03:00+8n486758 0.0 1025147
06:00+9nnw51167100 0.0 1023302
09:00+14n795542 0.0 1022644
12:00+17n6854100 0.0 1021789
15:00+20n684915 0.0 10191405
18:00+14e6107791 0.3 1020611
21:00+11ne49790 0.3 1019425
12 may, wed
wed1200:00+9ne49835 0.0 1019225
03:00+8nne510810 0.0 1017333
06:00+7nne5108710 0.0 1016352
09:00+12ne7864100 0.0 10151083
12:00+12ne6764100 0.1 10141039
15:00+12nne556862 0.2 1013777
18:00+13ene546293 0.6 1012778
21:00+10ne347715 0.6 101271